Flag for Norway Weather past 2 weeks in Hammerfest, Norway

Now
48 °F

Broken clouds.


Feels Like: 47 °F
Forecast: 46 / 48 °F
Wind: 3 mph from Southwest

Location: Hammerfest

Current Time: Aug 3, 2015 at 1:03:56 AM

Latest Report: Aug 2, 2015 at 11:50 PM


Visibility: N/A

Pressure: 29.86 "Hg

Humidity: 94%

Dew point: 46 °F

Location of HammerfestLocation

Historic Weather in Hammerfest — Graph

°F

Hammerfest temperature yesterday

Maximum temperature yesterday: 50 °F (at 3:50 PM)
Minimum temperature yesterday: 48 °F (at 12:50 AM)
Average temperature yesterday: 48 °F

Past Weeks' High & Low Weather Summary

 TemperatureHumidityPressure
High68 °F (Jul 28, 2:50 PM)100% (Jul 25, 11:50 PM)29.98 "Hg (Jul 25, 11:50 PM)
Low43 °F (Jul 22, 10:50 PM)40% (Jul 30, 7:50 PM)29.50 "Hg (Jul 19, 7:50 AM)
Average53 °F77%29.72 "Hg
* Reported Jul 18 11:50 PM — Aug 2 11:50 PM, Hammerfest, Weather by CustomWeather, © 2015

Note: Actual official high and low records may vary slightly from our data, if they occured in-between our weather recording intervals... More about our weather records

Advertising

Hammerfest weather history for previous 24 hours

 ConditionsComfort  
Time TempWeatherWind HumidityBarometerVisibility
11:50 PM
Sun, Aug 2
48 °FBroken clouds.3 mph94%29.86 "HgN/A
10:50 PM48 °FBroken clouds.3 mph94%29.86 "HgN/A
9:50 PM48 °FBroken clouds.1 mph100%29.83 "HgN/A
8:50 PM48 °FBroken clouds.2 mph94%29.83 "HgN/A
7:50 PM48 °FBroken clouds.3 mph100%29.83 "HgN/A
6:50 PM48 °FFog.3 mph100%29.83 "Hg6 mi
5:50 PM48 °FScattered showers. Broken clouds.5 mph94%29.83 "HgN/A
4:50 PM50 °FMore clouds than sun.3 mph88%29.83 "HgN/A
3:50 PM50 °FMore clouds than sun.3 mph88%29.83 "HgN/A
2:50 PM48 °FMore clouds than sun.6 mph100%29.83 "HgN/A
1:50 PM48 °FSleet. More clouds than sun.6 mph100%29.83 "HgN/A
12:50 PM48 °FDrizzle. Low clouds.1 mph100%29.83 "Hg5 mi
11:50 AM48 °FDrizzle. More clouds than sun.2 mph100%29.80 "Hg3 mi
10:50 AM48 °FDrizzle. More clouds than sun.2 mph100%29.80 "Hg4 mi
9:50 AM48 °FLight rain. More clouds than sun.3 mph100%29.80 "Hg4 mi
8:50 AM48 °FDrizzle. Dense fog.1 mph100%29.80 "Hg1 mi
7:50 AM48 °FDrizzle. Fog.1 mph100%29.80 "Hg2 mi
6:50 AM48 °FDrizzle. Mostly cloudy.3 mph100%29.80 "Hg1 mi
5:50 AM48 °FDrizzle. Fog.2 mph100%29.80 "Hg2 mi
4:50 AM48 °FDrizzle. Broken clouds.2 mph100%29.80 "Hg1 mi
3:50 AM48 °FLow clouds.2 mph100%29.80 "Hg1 mi
2:50 AM48 °FFog.3 mph100%29.80 "Hg0 mi
1:50 AM48 °FLight rain. Low clouds.2 mph100%29.83 "Hg0 mi
Weather by CustomWeather, © 2015

See weather overviewHow to use our weather pages